UAL2418 KSAN-KSFO

Flight info

Callsign UAL2418
Flight time 1h 19m
Altitude 38000
Route PADRZ2 IKAYE DCT RIZIN DCT SPLNT DCT STOKD DCT SERFR SERFR4
Aircraft B38M/M-SDE1FGHILORVWXY/HB1

Departure

Time 2026-04-24 06:52
Airport San Diego International Airport (KSAN)

Arrival

Time 2026-04-24 08:11
Airport San Francisco International Airport (KSFO)
Time Latitude Longitude Altitude Speed Heading
2026-04-24 06:33 32.73379 -117.20346 27 ft 0 kts 262°
2026-04-24 06:39 32.73381 -117.20330 24 ft 2 kts 262°
2026-04-24 06:39 32.73383 -117.20312 25 ft 2 kts 269°
2026-04-24 06:39 32.73379 -117.20294 25 ft 2 kts 308°
2026-04-24 06:39 32.73368 -117.20281 28 ft 2 kts 325°
2026-04-24 06:40 32.73354 -117.20273 26 ft 2 kts 344°
2026-04-24 06:40 32.73344 -117.20270 25 ft 1 kts 345°
2026-04-24 06:40 32.73342 -117.20269 25 ft 0 kts 345°
2026-04-24 06:44 32.73343 -117.20269 25 ft 0 kts 345°
2026-04-24 06:44 32.73372 -117.20279 29 ft 9 kts 345°
2026-04-24 06:44 32.73412 -117.20272 23 ft 7 kts 15°
2026-04-24 06:44 32.73460 -117.20257 27 ft 0 kts 15°
2026-04-24 06:45 32.73464 -117.20256 24 ft 2 kts 15°
2026-04-24 06:45 32.73489 -117.20246 25 ft 7 kts 18°
2026-04-24 06:45 32.73548 -117.20195 28 ft 15 kts 79°
2026-04-24 06:45 32.73509 -117.20035 27 ft 27 kts 107°
2026-04-24 06:46 32.73450 -117.19786 28 ft 32 kts 106°
2026-04-24 06:46 32.73396 -117.19554 28 ft 26 kts 105°
2026-04-24 06:46 32.73350 -117.19376 31 ft 20 kts 104°
2026-04-24 06:46 32.73316 -117.19228 27 ft 16 kts 107°
2026-04-24 06:47 32.73283 -117.19098 27 ft 17 kts 107°
2026-04-24 06:47 32.73254 -117.18964 27 ft 19 kts 104°
2026-04-24 06:47 32.73216 -117.18808 29 ft 18 kts 106°
2026-04-24 06:47 32.73182 -117.18675 30 ft 14 kts 106°
2026-04-24 06:48 32.73160 -117.18586 28 ft 7 kts 107°
2026-04-24 06:48 32.73149 -117.18539 27 ft 14 kts 107°
2026-04-24 06:48 32.73110 -117.18380 26 ft 24 kts 105°
2026-04-24 06:48 32.73060 -117.18168 25 ft 26 kts 106°
2026-04-24 06:49 32.73012 -117.17982 23 ft 21 kts 103°
2026-04-24 06:49 32.72991 -117.17894 24 ft 14 kts 107°
2026-04-24 06:49 32.72983 -117.17862 24 ft 13 kts 107°
2026-04-24 06:49 32.72955 -117.17744 24 ft 15 kts 97°
2026-04-24 06:50 32.72961 -117.17654 26 ft 7 kts 83°
2026-04-24 06:50 32.72974 -117.17619 28 ft 6 kts 54°
2026-04-24 06:50 32.73023 -117.17601 28 ft 6 kts 307°
2026-04-24 06:50 32.73035 -117.17643 26 ft 5 kts 287°
2026-04-24 06:51 32.73061 -117.17745 28 ft 29 kts 286°
2026-04-24 06:51 32.73158 -117.18139 25 ft 69 kts 286°
2026-04-24 06:51 32.73322 -117.18821 27 ft 102 kts 285°
2026-04-24 06:51 32.73554 -117.19776 30 ft 142 kts 286°
2026-04-24 06:52 32.73862 -117.21033 266 ft 162 kts 287°
2026-04-24 06:52 32.74219 -117.22324 690 ft 174 kts 290°
2026-04-24 06:52 32.74762 -117.23657 1140 ft 188 kts 306°
2026-04-24 06:52 32.75640 -117.24822 1722 ft 192 kts 312°
2026-04-24 06:53 32.76549 -117.25974 1836 ft 201 kts 313°
2026-04-24 06:53 32.77391 -117.27413 1813 ft 225 kts 301°
2026-04-24 06:53 32.78247 -117.28998 2377 ft 226 kts 304°
2026-04-24 06:53 32.79155 -117.30536 2921 ft 230 kts 305°
2026-04-24 06:54 32.80143 -117.32081 3364 ft 240 kts 310°
2026-04-24 06:54 32.81204 -117.33683 3741 ft 253 kts 306°
2026-04-24 06:54 32.82256 -117.35396 4251 ft 260 kts 306°
2026-04-24 06:54 32.83357 -117.37125 4844 ft 264 kts 307°
2026-04-24 06:55 32.84490 -117.38865 5441 ft 268 kts 307°
2026-04-24 06:55 32.85635 -117.40630 6069 ft 271 kts 306°
2026-04-24 06:55 32.86784 -117.42417 6687 ft 274 kts 306°
2026-04-24 06:55 32.87946 -117.44224 7296 ft 276 kts 306°
2026-04-24 06:56 32.89118 -117.46044 7933 ft 278 kts 306°
2026-04-24 06:56 32.90298 -117.47877 8565 ft 280 kts 306°
2026-04-24 06:56 32.91484 -117.49721 9214 ft 282 kts 305°
2026-04-24 06:56 32.92666 -117.51560 9864 ft 284 kts 305°
2026-04-24 06:57 32.93873 -117.53440 10399 ft 289 kts 305°
2026-04-24 06:57 32.95116 -117.55379 10792 ft 300 kts 305°
2026-04-24 06:57 32.96406 -117.57392 11144 ft 312 kts 305°
2026-04-24 06:57 32.97741 -117.59472 11623 ft 319 kts 305°
2026-04-24 06:58 32.99099 -117.61590 12166 ft 324 kts 305°
2026-04-24 06:58 33.00473 -117.63736 12767 ft 328 kts 305°
2026-04-24 06:58 33.01860 -117.65904 13396 ft 330 kts 305°
2026-04-24 06:58 33.03260 -117.68092 14010 ft 333 kts 305°
2026-04-24 06:59 33.04669 -117.70297 14582 ft 336 kts 304°
2026-04-24 06:59 33.06099 -117.72513 15169 ft 339 kts 308°
2026-04-24 06:59 33.07816 -117.74444 15750 ft 344 kts 316°
2026-04-24 06:59 33.09680 -117.76320 16326 ft 347 kts 316°
2026-04-24 07:00 33.11509 -117.78160 16885 ft 350 kts 315°
2026-04-24 07:00 33.13373 -117.80060 17434 ft 353 kts 315°
2026-04-24 07:00 33.15242 -117.81972 18018 ft 355 kts 315°
2026-04-24 07:00 33.17131 -117.83896 18536 ft 358 kts 315°
2026-04-24 07:01 33.19036 -117.85833 19024 ft 360 kts 314°
2026-04-24 07:01 33.20835 -117.87907 19520 ft 360 kts 310°
2026-04-24 07:01 33.22609 -117.90033 20016 ft 362 kts 310°
2026-04-24 07:01 33.24398 -117.92163 20493 ft 364 kts 310°
2026-04-24 07:02 33.26198 -117.94305 20977 ft 366 kts 310°
2026-04-24 07:02 33.28009 -117.96464 21452 ft 369 kts 310°
2026-04-24 07:02 33.29827 -117.98637 21904 ft 371 kts 310°
2026-04-24 07:02 33.31654 -118.00820 22402 ft 373 kts 310°
2026-04-24 07:03 33.33495 -118.03020 22849 ft 375 kts 310°
2026-04-24 07:03 33.35320 -118.05202 23291 ft 377 kts 310°
2026-04-24 07:03 33.37181 -118.07430 23727 ft 379 kts 310°
2026-04-24 07:03 33.39054 -118.09674 24118 ft 382 kts 310°
2026-04-24 07:04 33.40934 -118.11927 24498 ft 383 kts 310°
2026-04-24 07:04 33.42822 -118.14190 24889 ft 385 kts 310°
2026-04-24 07:04 33.44724 -118.16472 25275 ft 387 kts 310°
2026-04-24 07:04 33.46634 -118.18767 25658 ft 388 kts 309°
2026-04-24 07:05 33.48525 -118.21039 26031 ft 390 kts 309°
2026-04-24 07:05 33.50466 -118.23373 26409 ft 391 kts 309°
2026-04-24 07:05 33.52370 -118.25664 26774 ft 393 kts 309°
2026-04-24 07:05 33.54301 -118.27989 27139 ft 394 kts 309°
2026-04-24 07:06 33.56245 -118.30331 27527 ft 396 kts 309°
2026-04-24 07:06 33.58191 -118.32677 27877 ft 397 kts 309°
2026-04-24 07:06 33.60150 -118.35041 28224 ft 399 kts 309°
2026-04-24 07:06 33.62113 -118.37411 28567 ft 401 kts 309°
2026-04-24 07:07 33.64082 -118.39789 28913 ft 402 kts 309°
2026-04-24 07:07 33.66057 -118.42177 29250 ft 403 kts 309°
2026-04-24 07:07 33.70002 -118.46951 29902 ft 406 kts 309°
2026-04-24 07:08 33.71995 -118.49365 30206 ft 408 kts 309°
2026-04-24 07:08 33.73998 -118.51793 30490 ft 409 kts 309°
2026-04-24 07:08 33.76011 -118.54235 30739 ft 411 kts 309°
2026-04-24 07:08 33.78004 -118.56655 30990 ft 412 kts 309°
2026-04-24 07:09 33.80026 -118.59112 31240 ft 414 kts 309°
2026-04-24 07:09 33.82065 -118.61591 31492 ft 416 kts 308°
2026-04-24 07:09 33.84102 -118.64068 31742 ft 417 kts 308°
2026-04-24 07:09 33.86154 -118.66567 31979 ft 419 kts 308°
2026-04-24 07:10 33.88209 -118.69071 32231 ft 420 kts 308°
2026-04-24 07:10 33.90266 -118.71579 32472 ft 422 kts 308°
2026-04-24 07:10 33.92308 -118.74070 32740 ft 423 kts 308°
2026-04-24 07:10 33.94383 -118.76605 32959 ft 425 kts 308°
2026-04-24 07:11 33.96470 -118.79154 33186 ft 426 kts 308°
2026-04-24 07:11 33.98560 -118.81711 33415 ft 428 kts 308°
2026-04-24 07:11 34.00633 -118.84247 33635 ft 430 kts 308°
2026-04-24 07:11 34.02745 -118.86834 33868 ft 431 kts 308°
2026-04-24 07:12 34.04855 -118.89420 34085 ft 433 kts 308°
2026-04-24 07:12 34.06972 -118.92017 34371 ft 433 kts 308°
2026-04-24 07:12 34.09058 -118.94576 34699 ft 432 kts 308°
2026-04-24 07:12 34.11165 -118.97161 35007 ft 431 kts 307°
2026-04-24 07:13 34.13256 -118.99758 35294 ft 428 kts 304°
2026-04-24 07:13 34.15079 -119.02555 35570 ft 420 kts 297°
2026-04-24 07:13 34.16631 -119.05533 35853 ft 418 kts 296°
2026-04-24 07:13 34.18149 -119.08479 36039 ft 418 kts 296°
2026-04-24 07:14 34.19695 -119.11463 36264 ft 418 kts 296°
2026-04-24 07:14 34.21239 -119.14452 36483 ft 419 kts 296°
2026-04-24 07:14 34.22779 -119.17451 36705 ft 419 kts 296°
2026-04-24 07:14 34.24316 -119.20442 36927 ft 419 kts 296°
2026-04-24 07:15 34.25842 -119.23408 37171 ft 419 kts 296°
2026-04-24 07:15 34.27387 -119.26413 37387 ft 419 kts 295°
2026-04-24 07:15 34.28928 -119.29418 37593 ft 420 kts 295°
2026-04-24 07:15 34.30470 -119.32426 37782 ft 420 kts 295°
2026-04-24 07:16 34.32011 -119.35434 37951 ft 419 kts 295°
2026-04-24 07:16 34.33535 -119.38403 37935 ft 408 kts 295°
2026-04-24 07:16 34.34992 -119.41244 37914 ft 397 kts 295°
2026-04-24 07:16 34.36433 -119.44071 37937 ft 394 kts 295°
2026-04-24 07:17 34.39338 -119.49779 37933 ft 398 kts 295°
2026-04-24 07:17 34.42664 -119.55179 37918 ft 411 kts 307°
2026-04-24 07:18 34.46705 -119.60108 37940 ft 411 kts 306°
2026-04-24 07:18 34.50711 -119.65056 37969 ft 409 kts 306°
2026-04-24 07:19 34.54722 -119.69983 37991 ft 413 kts 307°
2026-04-24 07:19 34.58741 -119.74947 37945 ft 410 kts 306°
2026-04-24 07:20 34.62722 -119.79866 37972 ft 409 kts 306°
2026-04-24 07:20 34.66743 -119.84843 37956 ft 413 kts 306°
2026-04-24 07:21 34.70747 -119.89802 37956 ft 412 kts 306°
2026-04-24 07:21 34.74756 -119.94776 37964 ft 412 kts 306°
2026-04-24 07:22 34.78767 -119.99763 37963 ft 411 kts 306°
2026-04-24 07:22 34.82765 -120.04741 37980 ft 415 kts 306°
2026-04-24 07:23 34.86799 -120.09765 37978 ft 413 kts 306°
2026-04-24 07:23 34.90817 -120.14780 37989 ft 414 kts 306°
2026-04-24 07:24 34.94841 -120.19817 37997 ft 415 kts 306°
2026-04-24 07:24 34.98877 -120.24868 37983 ft 415 kts 306°
2026-04-24 07:25 35.02877 -120.29884 37996 ft 415 kts 306°
2026-04-24 07:25 35.06896 -120.34931 38024 ft 415 kts 306°
2026-04-24 07:26 35.11067 -120.39857 37996 ft 419 kts 309°
2026-04-24 07:26 35.15381 -120.44678 38007 ft 421 kts 309°
2026-04-24 07:27 35.19695 -120.49520 37977 ft 420 kts 310°
2026-04-24 07:27 35.24010 -120.54357 38018 ft 421 kts 309°
2026-04-24 07:28 35.28331 -120.59221 37989 ft 421 kts 309°
2026-04-24 07:28 35.32643 -120.64072 37985 ft 421 kts 309°
2026-04-24 07:29 35.36944 -120.68925 37989 ft 420 kts 309°
2026-04-24 07:29 35.41244 -120.73782 38002 ft 421 kts 310°
2026-04-24 07:30 35.45545 -120.78647 38003 ft 421 kts 310°
2026-04-24 07:30 35.49975 -120.83336 38057 ft 427 kts 315°
2026-04-24 07:31 35.54718 -120.87716 38030 ft 425 kts 315°
2026-04-24 07:31 35.58632 -120.91363 38036 ft 426 kts 315°
2026-04-24 07:32 35.63367 -120.95753 38038 ft 427 kts 315°
2026-04-24 07:32 35.68115 -121.00177 38031 ft 428 kts 315°
2026-04-24 07:33 35.72854 -121.04591 38035 ft 427 kts 315°
2026-04-24 07:33 35.77116 -121.08573 38029 ft 429 kts 315°
2026-04-24 07:34 35.81871 -121.13016 38053 ft 428 kts 315°
2026-04-24 07:34 35.86614 -121.17457 37971 ft 425 kts 315°
2026-04-24 07:35 35.88965 -121.19660 37454 ft 425 kts 315°
2026-04-24 07:35 35.91318 -121.21870 36949 ft 424 kts 316°
2026-04-24 07:35 35.93641 -121.24051 36404 ft 425 kts 316°
2026-04-24 07:35 35.95994 -121.26261 35872 ft 425 kts 316°
2026-04-24 07:36 35.98348 -121.28474 35333 ft 426 kts 317°
2026-04-24 07:36 36.00713 -121.30701 34712 ft 429 kts 317°
2026-04-24 07:36 36.03059 -121.32906 34142 ft 416 kts 317°
2026-04-24 07:36 36.05363 -121.35073 33607 ft 416 kts 317°
2026-04-24 07:37 36.07707 -121.37167 33109 ft 417 kts 322°
2026-04-24 07:37 36.10165 -121.39081 32572 ft 418 kts 323°
2026-04-24 07:37 36.12635 -121.40979 32049 ft 418 kts 323°
2026-04-24 07:37 36.15094 -121.42892 31533 ft 418 kts 323°
2026-04-24 07:38 36.17545 -121.44819 31008 ft 417 kts 323°
2026-04-24 07:38 36.19997 -121.46739 30500 ft 417 kts 324°
2026-04-24 07:38 36.22454 -121.48654 29956 ft 418 kts 324°
2026-04-24 07:38 36.24906 -121.50568 29432 ft 416 kts 324°
2026-04-24 07:39 36.27343 -121.52477 28918 ft 413 kts 323°
2026-04-24 07:39 36.29713 -121.54331 28373 ft 391 kts 323°
2026-04-24 07:39 36.31968 -121.56093 27940 ft 380 kts 323°
2026-04-24 07:39 36.34208 -121.57860 27473 ft 383 kts 323°
2026-04-24 07:40 36.36454 -121.59630 26998 ft 382 kts 323°
2026-04-24 07:40 36.38704 -121.61393 26531 ft 383 kts 323°
2026-04-24 07:40 36.40957 -121.63161 26060 ft 383 kts 323°
2026-04-24 07:40 36.43206 -121.64932 25589 ft 383 kts 323°
2026-04-24 07:41 36.45459 -121.66707 25115 ft 384 kts 323°
2026-04-24 07:41 36.47705 -121.68475 24606 ft 376 kts 323°
2026-04-24 07:41 36.49894 -121.70195 24168 ft 370 kts 323°
2026-04-24 07:41 36.52033 -121.71884 23723 ft 362 kts 323°
2026-04-24 07:42 36.54136 -121.73553 23202 ft 364 kts 323°
2026-04-24 07:42 36.56273 -121.75245 22711 ft 364 kts 323°
2026-04-24 07:42 36.58412 -121.76934 22230 ft 365 kts 323°
2026-04-24 07:42 36.60555 -121.78629 21748 ft 365 kts 324°
2026-04-24 07:43 36.62699 -121.80329 21268 ft 366 kts 324°
2026-04-24 07:43 36.64808 -121.81999 20775 ft 353 kts 324°
2026-04-24 07:43 36.66883 -121.83644 20330 ft 354 kts 324°
2026-04-24 07:43 36.68960 -121.85296 19875 ft 355 kts 325°
2026-04-24 07:44 36.71046 -121.86954 19388 ft 357 kts 325°
2026-04-24 07:44 36.73146 -121.88619 18919 ft 358 kts 328°
2026-04-24 07:44 36.75437 -121.89851 18467 ft 361 kts 342°
2026-04-24 07:44 36.77893 -121.90580 17932 ft 363 kts 348°
2026-04-24 07:45 36.80376 -121.91144 17451 ft 363 kts 348°
2026-04-24 07:45 36.82846 -121.91792 16963 ft 362 kts 346°
2026-04-24 07:45 36.85293 -121.92525 16486 ft 362 kts 346°
2026-04-24 07:45 36.87742 -121.93237 16007 ft 361 kts 347°
2026-04-24 07:46 36.90198 -121.93906 15527 ft 361 kts 347°
2026-04-24 07:46 36.92648 -121.94576 15047 ft 360 kts 347°
2026-04-24 07:46 36.95087 -121.95294 14573 ft 360 kts 342°
2026-04-24 07:46 36.97469 -121.96249 14099 ft 359 kts 343°
2026-04-24 07:47 36.99863 -121.97137 13601 ft 359 kts 343°
2026-04-24 07:47 37.02246 -121.98035 13117 ft 357 kts 342°
2026-04-24 07:47 37.04571 -121.98954 12619 ft 337 kts 342°
2026-04-24 07:47 37.06718 -121.99805 12180 ft 312 kts 342°
2026-04-24 07:48 37.08770 -122.00604 11821 ft 313 kts 342°
2026-04-24 07:48 37.10831 -122.01406 11413 ft 315 kts 342°
2026-04-24 07:48 37.12932 -122.02228 10983 ft 316 kts 342°
2026-04-24 07:48 37.15037 -122.03053 10579 ft 318 kts 342°
2026-04-24 07:49 37.17118 -122.03867 10135 ft 303 kts 342°
2026-04-24 07:49 37.19064 -122.04626 9699 ft 284 kts 342°
2026-04-24 07:49 37.20932 -122.05359 9288 ft 283 kts 342°
2026-04-24 07:49 37.22824 -122.06103 8918 ft 286 kts 342°
2026-04-24 07:50 37.24725 -122.06849 8545 ft 287 kts 342°
2026-04-24 07:50 37.26587 -122.07577 8160 ft 277 kts 341°
2026-04-24 07:50 37.28401 -122.08289 7823 ft 262 kts 341°
2026-04-24 07:50 37.30084 -122.08952 7487 ft 246 kts 341°
2026-04-24 07:51 37.31672 -122.09579 7150 ft 233 kts 342°
2026-04-24 07:51 37.33189 -122.10178 6831 ft 223 kts 342°
2026-04-24 07:51 37.34636 -122.10748 6545 ft 212 kts 342°
2026-04-24 07:51 37.36000 -122.11286 6260 ft 199 kts 342°
2026-04-24 07:52 37.37289 -122.11793 6000 ft 190 kts 343°
2026-04-24 07:52 37.38577 -122.12165 5779 ft 191 kts 343°
2026-04-24 07:52 37.39851 -122.12640 5557 ft 191 kts 342°
2026-04-24 07:52 37.41117 -122.13093 5343 ft 191 kts 344°
2026-04-24 07:53 37.42395 -122.13523 5110 ft 190 kts 344°
2026-04-24 07:53 37.43677 -122.13951 4881 ft 191 kts 343°
2026-04-24 07:53 37.44939 -122.14374 4641 ft 180 kts 344°
2026-04-24 07:53 37.46136 -122.14776 4425 ft 180 kts 343°
2026-04-24 07:54 37.47325 -122.15176 4211 ft 176 kts 343°
2026-04-24 07:54 37.48506 -122.15573 4003 ft 174 kts 344°
2026-04-24 07:54 37.49671 -122.15965 3800 ft 174 kts 343°
2026-04-24 07:54 37.50834 -122.16357 3601 ft 174 kts 344°
2026-04-24 07:55 37.51988 -122.16746 3381 ft 173 kts 344°
2026-04-24 07:55 37.53136 -122.17159 3162 ft 170 kts 335°
2026-04-24 07:55 37.53962 -122.18148 2977 ft 165 kts 298°
2026-04-24 07:55 37.54498 -122.19388 2761 ft 154 kts 295°
2026-04-24 07:56 37.54975 -122.20539 2572 ft 148 kts 296°
2026-04-24 07:56 37.55455 -122.21689 2335 ft 147 kts 296°
2026-04-24 07:56 37.55927 -122.22810 2083 ft 143 kts 296°
2026-04-24 07:56 37.56395 -122.23921 1840 ft 143 kts 296°
2026-04-24 07:57 37.56853 -122.25007 1797 ft 141 kts 296°
2026-04-24 07:57 37.57317 -122.26104 1656 ft 138 kts 296°
2026-04-24 07:57 37.57789 -122.27204 1415 ft 142 kts 298°
2026-04-24 07:57 37.58274 -122.28298 1273 ft 143 kts 296°
2026-04-24 07:58 37.58740 -122.29413 1069 ft 145 kts 296°
2026-04-24 07:58 37.59198 -122.30515 884 ft 143 kts 296°
2026-04-24 07:58 37.59652 -122.31606 698 ft 140 kts 296°
2026-04-24 07:58 37.60096 -122.32705 529 ft 139 kts 298°
2026-04-24 07:59 37.60547 -122.33750 337 ft 134 kts 296°
2026-04-24 07:59 37.60954 -122.34754 217 ft 128 kts 297°
2026-04-24 07:59 37.61357 -122.35716 67 ft 120 kts 299°
2026-04-24 07:59 37.61752 -122.36645 122 ft 121 kts 297°
2026-04-24 08:00 37.62150 -122.37599 282 ft 127 kts 296°
2026-04-24 08:00 37.62570 -122.38620 583 ft 133 kts 299°
2026-04-24 08:00 37.62990 -122.39638 1057 ft 127 kts 295°
2026-04-24 08:00 37.63384 -122.40619 1556 ft 124 kts 297°
2026-04-24 08:01 37.63785 -122.41588 2010 ft 125 kts 297°
2026-04-24 08:01 37.64191 -122.42561 2418 ft 125 kts 297°
2026-04-24 08:01 37.64607 -122.43550 2680 ft 137 kts 297°
2026-04-24 08:01 37.65367 -122.44401 2759 ft 159 kts 347°
2026-04-24 08:02 37.66469 -122.44165 2988 ft 176 kts 29°
2026-04-24 08:02 37.67358 -122.42995 3207 ft 185 kts 63°
2026-04-24 08:02 37.67700 -122.41521 3849 ft 180 kts 84°
2026-04-24 08:02 37.67731 -122.39835 3911 ft 202 kts 91°
2026-04-24 08:03 37.67635 -122.38026 4163 ft 211 kts 97°
2026-04-24 08:03 37.67443 -122.36297 4302 ft 188 kts 98°
2026-04-24 08:03 37.67256 -122.34724 4232 ft 187 kts 99°
2026-04-24 08:03 37.66919 -122.33061 4370 ft 203 kts 114°
2026-04-24 08:04 37.66307 -122.31465 4579 ft 199 kts 117°
2026-04-24 08:04 37.65680 -122.29923 4724 ft 196 kts 118°
2026-04-24 08:04 37.65062 -122.28399 4849 ft 195 kts 118°
2026-04-24 08:04 37.64445 -122.26881 4943 ft 194 kts 117°
2026-04-24 08:05 37.63826 -122.25367 5036 ft 194 kts 117°
2026-04-24 08:05 37.63206 -122.23855 5126 ft 194 kts 118°
2026-04-24 08:05 37.62589 -122.22342 5228 ft 194 kts 118°
2026-04-24 08:05 37.61980 -122.20852 5329 ft 194 kts 118°
2026-04-24 08:06 37.61339 -122.19283 5055 ft 218 kts 117°
2026-04-24 08:06 37.60571 -122.17558 4295 ft 227 kts 135°
2026-04-24 08:06 37.59183 -122.16941 3744 ft 211 kts 186°
2026-04-24 08:06 37.57895 -122.17659 3052 ft 200 kts 220°
2026-04-24 08:07 37.56832 -122.18742 2463 ft 187 kts 220°
2026-04-24 08:07 37.56034 -122.19894 1973 ft 168 kts 248°
2026-04-24 08:07 37.55904 -122.21297 1544 ft 157 kts 277°
2026-04-24 08:07 37.56079 -122.22736 1239 ft 174 kts 278°
2026-04-24 08:08 37.56425 -122.24158 1333 ft 167 kts 294°
2026-04-24 08:08 37.56955 -122.25454 1398 ft 164 kts 297°
2026-04-24 08:08 37.57481 -122.26674 1486 ft 154 kts 297°
2026-04-24 08:09 37.58557 -122.28990 1241 ft 165 kts 296°
2026-04-24 08:09 37.59099 -122.30332 1020 ft 176 kts 294°
2026-04-24 08:09 37.59621 -122.31548 629 ft 145 kts 298°
2026-04-24 08:09 37.60116 -122.32696 530 ft 145 kts 295°
2026-04-24 08:10 37.60563 -122.33805 366 ft 141 kts 297°
2026-04-24 08:10 37.61016 -122.34902 212 ft 142 kts 296°
2026-04-24 08:10 37.61474 -122.35999 37 ft 138 kts 296°
2026-04-24 08:10 37.61846 -122.36888 19 ft 88 kts 297°
2026-04-24 08:11 37.62068 -122.37422 17 ft 55 kts 297°
2026-04-24 08:11 37.62194 -122.37775 21 ft 34 kts 281°
2026-04-24 08:11 37.62217 -122.37987 25 ft 15 kts 277°
2026-04-24 08:11 37.62231 -122.38128 29 ft 22 kts 277°
2026-04-24 08:12 37.62220 -122.38277 22 ft 10 kts 258°
2026-04-24 08:12 37.62215 -122.38286 22 ft 2 kts 225°
2026-04-24 08:12 37.62077 -122.38342 24 ft 25 kts 195°
2026-04-24 08:12 37.62000 -122.38286 24 ft 14 kts 122°
2026-04-24 08:13 37.61961 -122.38259 25 ft 2 kts 190°
2026-04-24 08:13 37.61950 -122.38262 23 ft 4 kts 193°
2026-04-24 08:13 37.61922 -122.38277 22 ft 4 kts 206°
2026-04-24 08:13 37.61907 -122.38292 24 ft 1 kts 237°
2026-04-24 08:14 37.61907 -122.38309 23 ft 2 kts 262°
2026-04-24 08:14 37.61909 -122.38316 23 ft 1 kts 289°
2026-04-24 08:14 37.61920 -122.38350 21 ft 0 kts 291°